Wind_Speed
11 6 8 6 5 13 11 15 15 11 13 8 8 10 12 14 12 15 13 13 12 13 12 19 14 15 23 31 28 30 27 20 18 14 11 7 10 11 12 9 11 9 8 6
10 5 6 14 17 19 16 1 10 13 9 10 13 11 14 15 14 14 13 14 14 14 15 16 14 14 22 28 25 26 26 21 16 12 10 13 12 10 11 12 12 11 8 6
15 3 13 12 16 12 8 12 7 9 7 11 11 13 15 15 14 15 16 17 17 18 16 13 16 16 15 27 25 24 23 16 19 13 13 14 14 12 15 15 14 12 9 5
4 10 16 17 11 5 2 11 8 16 15 7 9 9 17 13 13 15 16 15 15 17 18 14 17 16 14 20 20 23 23 21 18 17 18 19 16 16 16 18 16 15 9 5
4 14 18 20 7 5 3 9 16 16 6 4 7 6 12 12 18 16 11 10 11 14 14 15 18 22 19 20 22 27 25 22 20 19 17 16 11 14 13 11 16 10 8 9
10 16 20 2 2 2 13 10 15 9 9 7 16 11 14 13 11 19 10 13 12 9 11 13 21 22 21 24 25 22 24 23 22 16 15 15 8 10 10 7 8 5 6 2
8 16 4 4 6 6 8 10 3 7 7 4 9 5 5 19 19 17 19 12 11 10 10 11 14 19 22 23 23 21 21 22 20 15 12 11 8 7 8 7 5 8 3 4
11 9 13 8 7 4 15 7 3 2 5 7 5 5 5 12 9 6 12 10 10 10 9 11 14 19 21 19 18 17 17 19 18 16 13 12 11 9 6 7 4 1 4 4
6 3 13 10 3 10 9 4 4 7 3 2 6 17 7 8 8 7 11 12 12 12 12 13 17 19 19 18 18 20 20 20 21 17 16 14 11 7 6 5 4 5 2 3
6 3 14 16 6 4 5 6 4 2 2 4 8 10 9 6 8 6 10 11 12 12 13 12 16 20 22 22 23 21 20 22 21 19 16 12 11 9 6 4 7 4 3 4
7 11 8 6 8 8 6 7 5 6 4 1 4 3 7 6 8 6 8 12 13 14 14 13 15 20 21 22 22 20 20 22 19 17 15 14 14 9 9 9 5 5 4 5
13 5 4 12 3 5 9 11 9 3 6 2 1 6 4 5 6 5 7 10 13 14 13 14 17 20 19 19 19 17 16 19 19 15 15 15 11 13 12 8 7 5 5 7
4 4 5 9 6 8 8 12 9 8 2 4 3 3 5 4 2 4 4 8 10 11 13 14 14 16 19 18 19 19 18 17 16 16 13 15 16 13 8 7 5 5 6 8
3 5 9 6 11 5 6 11 11 10 3 4 9 14 9 10 10 7 8 4 5 10 11 12 12 14 19 18 18 19 18 16 15 14 18 17 13 10 5 5 5 6 8 10
3 8 12 14 14 7 9 12 8 11 10 10 11 15 12 11 7 5 2 6 7 7 9 9 7 8 15 16 17 19 18 15 13 16 14 11 5 2 4 5 6 8 9 11
5 6 4 8 9 13 11 15 15 15 15 14 14 14 11 8 8 8 7 7 6 5 6 4 4 6 12 15 17 16 17 15 16 13 8 1 0 3 4 5 7 10 11 12
7 3 2 2 6 7 5 10 16 16 15 13 11 10 8 12 8 5 3 6 4 5 6 6 6 8 10 15 17 16 17 15 12 6 1 3 4 5 5 8 9 10 10 12
6 5 3 1 1 1 8 4 5 5 8 9 9 12 12 12 11 8 5 5 6 1 4 3 4 8 8 14 17 13 13 13 7 5 4 3 4 5 6 8 12 12 12 10
4 4 2 3 4 7 12 1 3 2 5 11 10 10 10 10 8 12 5 9 7 7 4 3 1 5 8 11 15 13 11 7 7 4 5 3 4 6 7 10 13 13 13 12
1 5 3 3 2 4 1 5 3 2 2 8 9 9 8 9 3 6 6 3 5 4 6 2 3 8 14 13 13 11 10 7 7 6 7 10 8 9 11 14 13 12 13 14
2 0 4 3 1 5 6 5 1 2 3 5 6 8 8 7 3 5 9 9 6 10 9 14 17 18 17 13 13 14 13 12 5 3 7 9 10 12 12 12 14 14 15 18
6 6 3 2 2 5 6 5 2 4 5 7 7 8 6 5 9 6 4 7 9 12 18 17 22 26 25 21 20 15 10 4 7 7 7 10 14 14 16 15 14 15 18 13
4 4 4 7 3 6 4 5 5 6 5 7 8 8 8 8 8 8 4 7 10 16 14 20 23 21 19 17 15 10 1 3 5 7 10 12 14 16 16 14 15 16 19 12
4 4 2 2 4 7 4 9 12 10 8 8 8 10 10 10 10 8 9 10 19 24 22 22 19 16 12 8 3 5 5 8 8 10 12 14 15 14 14 16 18 18 15 9
3 6 4 4 3 3 13 13 10 8 10 10 9 14 11 7 11 14 15 16 20 19 17 16 13 8 5 2 3 9 10 7 9 11 13 13 13 15 15 16 16 15 14 12
3 1 3 1 7 4 12 10 10 11 11 11 11 14 17 20 17 21 15 18 17 15 12 9 5 4 5 7 8 7 8 10 12 12 12 12 13 13 14 14 18 20 19 19
Wind_Direction
192 204 215 255 180 228 224 239 211 218 156 206 194 162 171 176 184 162 165 165 164 159 149 146 168 176 154 146 150 154 160 165 163 163 152 155 154 147 150 153 160 153 141 145
289 193 253 214 217 248 277 70 315 120 159 201 213 217 175 188 191 175 172 170 175 175 170 146 173 184 149 149 157 159 165 174 180 181 167 148 156 161 150 152 163 173 159 161
305 134 289 201 228 230 282 123 306 352 237 212 244 224 169 189 200 202 187 185 180 180 161 161 175 193 190 155 161 158 171 194 194 175 164 156 163 157 161 166 174 173 166 176
282 277 266 279 240 274 33 338 201 227 214 228 14 284 179 172 205 210 205 191 184 185 162 171 174 183 181 158 166 171 181 192 192 173 168 161 164 167 188 181 186 170 170 194
299 306 278 264 102 306 174 236 265 261 257 112 345 317 224 212 215 218 202 205 197 180 166 171 176 167 187 171 185 187 189 177 171 182 165 173 188 149 135 137 150 158 191 229
176 250 257 250 84 337 175 212 244 262 284 192 199 193 155 195 221 266 219 201 213 169 173 167 149 157 170 181 185 185 180 175 161 183 166 180 180 132 141 159 170 215 215 283
175 229 236 175 203 198 224 264 272 25 332 233 265 252 332 194 212 190 196 176 192 183 163 166 150 162 164 171 181 178 174 156 165 175 184 179 157 145 135 156 182 237 301 313
207 218 220 204 252 80 318 269 107 327 212 313 10 245 106 105 124 117 148 169 164 157 159 163 160 160 163 163 161 171 177 162 172 179 178 167 157 162 180 234 216 333 296 303
335 64 342 322 250 156 228 265 149 271 108 313 271 282 112 112 111 142 150 164 164 170 169 168 167 158 161 168 174 187 183 173 171 178 167 153 166 177 185 144 147 252 261 278
157 21 277 253 251 213 265 345 283 207 281 270 302 275 115 162 136 155 161 171 171 178 178 180 175 167 173 179 183 192 188 167 170 164 160 167 181 171 169 199 220 216 248 279
148 145 246 230 216 250 177 242 231 284 277 70 315 75 31 87 129 159 188 176 178 185 185 186 181 178 180 180 178 186 183 167 163 169 171 178 176 172 189 201 213 219 247 289
232 297 184 210 116 356 314 297 226 176 269 170 342 282 87 104 112 156 203 189 185 188 194 186 185 176 185 176 173 182 194 170 170 176 175 186 185 190 191 203 214 226 262 294
221 238 275 287 215 208 235 250 250 278 122 243 169 256 147 150 172 164 245 202 191 192 196 192 181 181 182 176 174 188 189 169 172 170 193 197 196 195 192 211 215 241 278 297
316 241 250 240 263 334 226 235 248 227 159 240 258 275 256 211 202 210 177 258 237 190 205 206 182 178 173 178 184 177 171 178 170 195 204 205 197 204 187 220 233 259 285 292
244 246 261 265 276 293 292 294 254 250 247 229 249 261 271 296 23 340 166 181 213 261 204 213 184 165 167 175 187 166 174 171 194 211 204 208 158 175 231 235 249 269 288 295
203 243 288 293 296 289 273 276 277 273 276 279 270 271 279 312 44 3 10 331 288 274 215 181 214 193 181 186 165 173 169 184 204 210 201 141 98 215 244 253 264 283 287 289
190 232 136 243 350 350 323 250 252 262 267 270 268 280 311 315 328 40 344 317 332 335 334 178 197 202 207 170 170 172 186 182 183 169 194 229 224 218 251 268 280 285 288 296
191 213 89 152 316 264 243 38 355 337 313 316 342 17 8 43 16 360 338 339 359 149 331 325 177 199 200 164 172 174 155 156 158 194 207 246 225 232 255 283 291 289 284 290
216 132 127 147 211 279 306 32 25 27 47 36 29 14 12 26 342 22 81 50 22 10 355 314 196 156 150 139 138 138 129 149 131 43 285 255 299 292 292 290 293 295 289 287
111 155 157 170 211 211 99 102 57 343 171 38 21 5 349 340 330 57 28 58 355 345 338 341 141 122 114 111 125 126 135 110 66 33 2 336 306 312 309 302 306 301 294 291
96 311 177 146 206 292 85 111 92 220 69 52 5 1 358 347 69 30 3 345 9 349 34 75 73 73 88 97 111 80 68 54 36 302 307 304 303 297 292 293 295 292 291 288
170 159 184 157 144 262 131 131 136 56 10 12 357 358 344 345 327 341 11 354 5 62 69 71 75 67 57 62 69 64 53 25 30 338 293 294 300 300 292 284 286 289 287 294
194 185 175 173 198 145 97 52 70 42 20 13 0 351 340 331 320 330 64 53 54 74 83 81 84 77 65 60 61 64 353 1 308 298 296 290 287 286 287 285 285 284 288 279
182 78 144 65 161 168 134 83 57 34 8 347 351 8 21 354 338 0 70 71 65 66 67 72 77 72 66 65 71 26 321 291 270 269 278 283 283 293 297 292 284 282 295 268
20 146 198 203 39 48 69 55 38 20 30 20 12 45 18 349 50 68 69 74 74 77 79 78 78 77 103 132 240 249 250 264 283 282 281 289 296 297 295 292 297 302 301 298
177 75 153 106 77 22 74 62 46 55 51 43 58 62 46 57 71 75 73 77 81 79 85 101 148 209 250 260 276 290 280 267 269 279 282 284 290 295 297 303 305 295 297 295
Height
754 766 770 760 757 757 755 757 755 741 737 749 753 753 754 752 754 760 764 768 772 777 781 788 794 798 801 806 814 819 826 832 834 836 838 840 840 843 845 847 853 856 857 859
769 770 755 760 754 753 748 757 754 741 741 749 751 752 749 749 751 753 760 767 772 776 780 787 793 797 801 806 812 817 823 829 833 835 836 837 841 843 844 848 852 855 857 859
774 764 758 749 752 754 749 771 766 767 750 743 747 756 752 749 749 750 752 755 761 768 776 784 791 796 800 804 810 815 822 827 829 832 834 838 841 842 846 849 852 853 856 858
774 766 763 753 751 744 767 761 757 758 761 775 762 783 752 752 754 749 747 750 754 759 769 778 787 795 799 805 809 814 820 823 826 829 832 835 838 841 843 846 849 852 855 857
782 778 763 756 749 744 769 756 759 747 752 769 777 791 777 750 754 746 746 748 750 754 763 772 782 791 800 804 809 812 816 820 824 828 831 834 836 838 840 844 846 849 852 854
772 760 752 741 741 742 750 758 750 748 755 788 783 787 771 769 765 767 752 751 753 754 761 769 779 788 795 803 807 809 813 816 821 826 829 832 834 836 839 842 845 849 849 851
757 753 738 738 749 742 747 756 781 828 822 782 740 754 742 752 742 736 746 751 755 757 763 769 778 786 794 800 804 806 810 815 820 825 828 831 833 836 838 841 843 846 847 849
762 773 745 738 745 770 766 756 801 813 826 777 748 761 745 734 733 734 739 748 754 761 766 772 778 785 792 798 802 805 809 813 819 823 827 829 832 835 838 842 843 846 847 847
772 774 759 740 737 749 760 763 751 770 777 787 765 744 738 735 740 740 745 750 758 763 768 773 779 785 792 798 803 806 808 812 816 821 824 827 832 835 837 837 838 846 846 847
765 794 773 750 744 742 750 744 770 766 795 797 762 748 757 751 748 745 749 754 759 763 767 772 778 784 790 796 801 804 806 810 814 818 822 827 831 833 835 838 842 842 844 844
752 781 785 754 754 751 755 760 756 756 762 789 792 768 739 742 741 747 747 749 755 760 764 769 774 781 787 792 797 801 805 808 812 817 822 826 829 830 834 836 839 841 841 841
737 743 760 755 733 734 741 749 748 778 782 773 782 778 737 740 738 741 745 744 748 754 759 764 770 776 783 789 794 799 804 807 812 818 822 825 826 828 831 833 837 838 839 838
735 750 771 760 747 739 749 746 745 748 758 778 797 777 737 739 741 739 741 742 744 749 753 758 764 771 778 785 792 798 803 807 812 817 822 824 825 826 827 831 832 835 835 835
742 745 756 772 756 743 749 748 743 749 780 778 776 761 740 737 739 736 739 741 741 744 749 753 758 765 773 781 789 795 801 807 812 818 820 821 823 825 824 827 829 831 832 832
744 758 751 745 740 740 748 746 742 749 750 769 763 757 741 732 734 732 731 736 741 743 745 749 755 762 770 778 786 793 800 806 813 816 817 819 819 822 824 826 828 830 830 830
742 757 755 758 748 747 755 749 745 744 743 742 743 746 728 725 730 736 738 739 740 743 744 749 756 762 769 776 784 792 799 806 812 814 816 817 820 821 824 825 826 827 827 827
745 756 765 774 764 767 782 758 750 744 738 740 753 740 730 733 731 737 739 742 743 746 747 750 756 763 769 774 782 790 798 804 809 812 815 818 819 819 822 824 824 823 823 823
745 753 766 778 790 794 750 733 737 744 739 734 733 736 736 742 741 740 741 744 746 747 751 753 757 762 768 774 782 790 797 804 809 813 815 817 819 819 819 820 822 821 820 818
737 757 778 791 777 759 747 739 745 749 751 744 746 746 743 745 747 748 743 749 752 753 754 756 759 764 770 776 783 792 799 806 811 816 821 820 820 818 816 816 817 817 816 816
748 748 768 780 784 793 751 747 742 743 765 750 752 754 752 749 764 761 754 755 756 756 758 759 763 767 774 781 788 795 801 806 813 818 821 821 820 818 817 817 815 813 812 811
771 771 781 779 782 767 742 744 746 768 773 756 756 756 756 759 761 760 760 758 758 759 760 763 769 776 782 788 793 799 804 809 813 819 822 821 819 816 813 811 812 812 810 808
766 769 781 770 789 789 741 748 763 759 754 756 755 756 759 758 758 757 760 762 762 763 770 775 780 788 794 797 801 807 812 816 817 818 819 818 818 816 814 811 809 808 807 805
748 741 752 756 760 744 741 747 748 752 756 758 759 759 759 759 759 757 759 764 769 774 779 784 791 798 803 808 811 813 817 818 817 817 815 815 813 811 809 806 804 803 802 800
731 734 744 748 738 739 742 747 755 760 763 761 760 760 763 765 762 761 765 772 781 787 792 797 801 805 809 811 814 816 815 814 813 812 811 809 807 806 804 803 801 798 797 795
737 737 741 744 741 743 750 757 764 764 766 767 766 768 770 766 767 770 777 787 794 799 802 805 808 811 811 810 810 811 810 810 810 809 807 806 805 803 801 799 797 795 794 794
734 737 749 752 753 755 765 768 768 771 774 775 774 779 782 780 785 789 796 800 803 805 807 807 808 809 810 810 810 810 809 808 807 805 804 802 801 799 798 795 793 792 790 789